Location: Croisilles
(50.1998°N, 2.8793°E)
Time: 13:36:53
(UTC+00:00)

Cosmos 158 Rocket - Pass Details

Date: 21 January 2021
Orbit: 698 x 794 km, 74.0° (Epoch: 26 February)

Event Time Altitude Azimuth Distance (km) Brightness Sun altitude
Rises 17:29:44 0° 339° (NNW) 3,254 7.3 -10.4°
Reaches altitude 10° 17:32:13 10° 345° (NNW) 2,336 6.5 -10.8°
Maximum altitude 17:37:19 45° 59° (ENE) 1,063 4.3 -11.5°
Drops below altitude 10° 17:42:28 10° 131° (SE) 2,357 6.2 -12.3°
Sets 17:44:58 0° 138° (SE) 3,285 7.0 -12.7°
